Volver al catálogo

DELTA 1 DEB

ActivoPO
NORAD 21445·DEBRIS·🇺🇸 United States

Lanzado Jun 12, 1975 desde Vandenberg Space Force Base

Loading…

Próximos Pases (próximas 24 horas)

TLE

ActualizadoSource: Space-Track

Época: Sep 13, 2026, 13:54 UTC

1 21445U 75052ED  26256.57919897 -.00000010  00000-0  66194-4 0  9993
2 21445  99.6505 266.5855 0080778 235.3317 249.5228 13.28574857714478

Sigue DELTA 1 DEB en tiempo real con AllMySat

Download on the App Store